Weather reports worldwide

Advertisment
Pajala A, Sweden (2095): temperature & dewpoint: 01.07.2020 21:00:00 - 07.07.2020 21:00:00 (CEST)Pajala A, Sweden (2095): wind speed & gusts: 01.07.2020 21:00:00 - 07.07.2020 21:00:00 (CEST)Pajala A, Sweden (2095): wind direction: 01.07.2020 21:00:00 - 07.07.2020 21:00:00 (CEST)Pajala A, Sweden (2095): reduced air pressure: 01.07.2020 21:00:00 - 07.07.2020 21:00:00 (CEST)Pajala A, Sweden (2095): visibility: 01.07.2020 21:00:00 - 07.07.2020 21:00:00 (CEST)Pajala A, Sweden (2095): precipitation: 01.07.2020 21:00:00 - 07.07.2020 21:00:00 (CEST)
Date & Time tt [°C] td [°C] ff [km/h] ff [kn] fx [km/h] fx [kn] dd ppp [hPa] vv [km] rr [mm]
07.07.2020 21:00:00 11,8 10,7 0 0 20 11 N 999,4 26 0,5
07.07.2020 20:00:00 14,6 10,6 6 3 11 6 ESE 998,9 48 0,0
07.07.2020 19:00:00 14,1 11,8 4 2 10 5 ESE 998,8 36 0,0
07.07.2020 18:00:00 14,8 11,8 0 0 5 3 N 998,4 34 0,0
07.07.2020 17:00:00 14,0 10,4 5 3 9 5 E 998,5 50 0,0
07.07.2020 16:00:00 13,6 11,5 2 1 10 6 ESE 998,3 50 0,7
07.07.2020 15:00:00 12,0 10,2 7 4 16 8 ESE 998,3 11 1,0
07.07.2020 14:00:00 13,3 11,5 7 4 21 11 SE 997,4 15 0,1
07.07.2020 13:00:00 16,2 6,6 5 3 12 7 N 996,4 50 0,0
07.07.2020 12:00:00 17,1 7,2 2 1 12 6 N 995,9 50 0,0
07.07.2020 11:00:00 15,4 7,9 4 2 11 6 WSW 995,7 50 0,0
07.07.2020 10:00:00 15,5 8,0 3 1 10 5 SE 995,2 38 0,0
07.07.2020 09:00:00 14,5 8,2 6 3 11 6 NNW 994,9 50 0,0
07.07.2020 08:00:00 13,9 8,1 3 2 6 3 WNW 994,5 28 0,0
07.07.2020 07:00:00 12,0 8,7 4 2 8 5 NW 994,0 47 0,0
07.07.2020 06:00:00 10,2 8,8 2 1 5 3 WNW 993,8 44 0,0
07.07.2020 05:00:00 8,9 7,8 5 3 8 4 SSE 993,3 50 0,0
07.07.2020 04:00:00 7,9 7,8 4 2 6 3 WSW 992,6 50 0,0
07.07.2020 03:00:00 4,9 4,5 0 0 5 3 N 992,2 50 0,0
07.07.2020 02:00:00 6,3 5,6 0 0 4 2 N 991,7 47 0,0
07.07.2020 01:00:00 6,9 6,0 2 1 5 3 E 991,4 50 0,0
07.07.2020 00:00:00 6,7 5,8 3 2 7 4 SSW 991,2 50 0,0
06.07.2020 23:00:00 9,1 7,7 5 3 8 4 S 990,4 34 0,0
06.07.2020 22:00:00 12,5 7,9 5 3 13 7 S 989,7 50 0,0
06.07.2020 21:00:00 14,2 7,5 7 4 - - S 989,1 47 0,0
06.07.2020 20:00:00 15,3 6,6 8 4 13 7 S 988,9 50 0,0
06.07.2020 19:00:00 14,6 6,4 8 4 16 9 SE 988,9 47 0,0
06.07.2020 18:00:00 16,6 6,4 8 4 18 10 SSW 988,6 50 0,0
06.07.2020 17:00:00 15,6 5,8 6 3 14 8 ESE 988,7 49 0,0
06.07.2020 16:00:00 15,3 6,0 3 2 11 6 N 988,5 45 0,0
06.07.2020 15:00:00 15,1 6,4 6 3 13 7 SE 988,3 50 0,0
06.07.2020 14:00:00 14,4 6,0 5 3 11 6 ENE 988,5 49 0,0
06.07.2020 13:00:00 14,1 5,7 2 1 13 7 SSE 988,7 50 0,0
06.07.2020 12:00:00 13,5 6,1 6 3 11 6 E 988,9 50 0,0
06.07.2020 11:00:00 12,8 5,9 8 4 17 9 NE 989,0 49 0,0
06.07.2020 10:00:00 12,2 6,3 10 6 17 9 NNE 989,2 50 0,0
06.07.2020 09:00:00 10,9 5,6 10 5 18 10 N 989,7 50 0,0
06.07.2020 08:00:00 10,7 5,0 12 6 21 11 NNE 990,2 44 0,0
06.07.2020 07:00:00 10,3 5,9 10 5 19 10 N 990,8 44 0,0
06.07.2020 06:00:00 8,8 4,8 11 6 17 9 NNE 991,5 50 0,0
06.07.2020 05:00:00 8,2 5,1 5 3 9 5 N 992,2 50 0,0
06.07.2020 04:00:00 4,6 3,6 4 2 6 3 N 993,0 47 0,0
06.07.2020 03:00:00 2,7 2,4 4 2 7 4 SSW 994,1 37 0,0
06.07.2020 02:00:00 5,8 3,8 5 3 13 7 NNW 993,9 50 0,0
06.07.2020 01:00:00 6,9 4,9 5 3 13 7 NNW 994,4 50 0,0
06.07.2020 00:00:00 7,0 5,6 3 2 16 8 N 994,9 50 0,0
05.07.2020 23:00:00 8,8 5,9 7 4 11 6 N 995,0 50 0,0
05.07.2020 22:00:00 9,6 6,1 5 3 14 8 NNE 995,2 50 0,0
05.07.2020 21:00:00 10,0 6,3 6 3 16 9 NNE 995,0 50 0,0
05.07.2020 20:00:00 11,1 6,0 10 6 21 11 NNW 995,0 50 0,0
05.07.2020 19:00:00 11,8 6,1 9 5 23 13 NNW 995,1 48 0,0
05.07.2020 18:00:00 10,9 6,3 13 7 27 14 NW 995,5 50 0,0
05.07.2020 17:00:00 10,3 6,3 13 7 26 14 NW 995,4 50 0,0
05.07.2020 16:00:00 10,4 6,9 10 5 25 14 NW 995,2 50 0,0
05.07.2020 15:00:00 10,0 7,1 15 8 30 16 NW 995,0 49 0,0
05.07.2020 14:00:00 9,4 7,3 13 7 27 14 NW 994,7 45 0,0
05.07.2020 13:00:00 9,3 7,9 13 7 28 15 NW 994,4 45 0,1
05.07.2020 12:00:00 8,8 7,6 14 8 27 15 NW 994,2 27 0,4
05.07.2020 11:00:00 8,3 7,2 16 9 29 16 NW 994,0 17 0,8
05.07.2020 10:00:00 8,0 7,1 15 8 27 15 NW 993,8 13 0,4
05.07.2020 09:00:00 8,0 7,1 16 9 29 16 NW 993,7 25 0,4
05.07.2020 08:00:00 8,0 7,2 16 9 30 16 NNW 993,6 12 0,8
05.07.2020 07:00:00 8,3 7,5 17 9 32 18 N 993,4 15 0,3
05.07.2020 06:00:00 8,4 7,8 17 9 33 18 N 993,7 29 0,3
05.07.2020 05:00:00 8,7 8,3 19 11 34 19 N 993,9 14 3,3
05.07.2020 04:00:00 9,1 8,8 19 10 31 17 N 994,0 7 3,3
05.07.2020 03:00:00 9,1 8,5 18 10 30 16 N 994,7 6 0,5
05.07.2020 02:00:00 9,3 8,7 13 7 24 13 N 995,6 16 1,1
05.07.2020 01:00:00 9,5 9,2 9 5 15 8 N 996,4 9 1,2
05.07.2020 00:00:00 9,3 9,0 9 5 14 8 NNE 997,3 12 2,1
04.07.2020 23:00:00 9,4 8,9 7 4 13 7 NNE 997,9 9 1,8
04.07.2020 22:00:00 9,6 8,8 9 5 15 8 N 998,4 15 2,6
04.07.2020 21:00:00 9,9 8,8 5 3 10 5 N 998,8 14 1,2
04.07.2020 20:00:00 10,6 9,4 4 2 8 4 NNE 999,3 12 0,8
04.07.2020 19:00:00 11,0 9,3 2 1 22 12 SE 999,6 6 0,2
04.07.2020 18:00:00 13,1 6,4 11 6 20 11 SSE 999,7 38 0,0
04.07.2020 17:00:00 14,7 5,2 5 3 9 5 E 999,6 50 0,0
04.07.2020 16:00:00 14,8 4,8 4 2 22 12 E 1000,0 41 0,0
04.07.2020 15:00:00 14,9 5,4 7 4 19 10 WSW 1000,4 44 0,0
04.07.2020 14:00:00 13,6 5,7 7 4 27 15 WNW 1000,6 50 0,0
04.07.2020 13:00:00 12,8 6,2 10 5 24 13 SW 1000,6 50 0,0
04.07.2020 12:00:00 10,8 6,0 11 6 23 13 WSW 1000,7 49 0,0
04.07.2020 11:00:00 10,3 6,6 12 7 25 14 SW 1000,5 50 0,0
04.07.2020 10:00:00 9,5 7,1 13 7 21 12 SW 1000,3 49 0,0
04.07.2020 09:00:00 9,9 7,5 10 5 17 9 SW 999,4 47 0,0
04.07.2020 08:00:00 9,3 7,9 9 5 19 11 WSW 999,2 50 0,0
04.07.2020 07:00:00 8,7 8,1 9 5 19 10 WSW 998,9 50 0,0
04.07.2020 06:00:00 8,4 8,1 6 4 13 7 S 998,6 7 0,0
04.07.2020 05:00:00 8,1 7,8 6 3 11 6 SE 998,6 4,7 0,0
04.07.2020 04:00:00 8,0 7,6 5 3 13 7 ESE 998,4 50 0,0
04.07.2020 03:00:00 7,7 7,3 7 4 15 8 SSE 998,4 31 0,0
04.07.2020 02:00:00 7,9 7,5 8 4 16 9 SE 998,7 45 0,0
04.07.2020 01:00:00 8,4 8,0 8 4 16 9 SE 998,8 35 0,0
04.07.2020 00:00:00 8,9 8,3 9 5 16 9 SE 998,8 46 0,0
03.07.2020 23:00:00 9,0 8,4 5 3 14 7 SSE 999,0 41 0,0
03.07.2020 22:00:00 9,2 8,9 6 3 19 10 ENE 999,0 29 2,3
03.07.2020 21:00:00 8,9 8,6 12 6 22 12 NNE 999,3 24 1,0
03.07.2020 20:00:00 8,9 8,4 13 7 23 12 NNE 999,6 12 1,0
03.07.2020 19:00:00 9,0 8,2 12 6 27 14 NNE 1000,1 50 0,4
03.07.2020 18:00:00 8,9 8,1 16 9 26 14 NNE 1000,7 20 1,2
03.07.2020 17:00:00 9,5 8,3 13 7 25 13 NE 1001,3 9 0,2
03.07.2020 16:00:00 10,1 7,3 12 6 24 13 NE 1001,7 50 0,8
03.07.2020 15:00:00 9,7 5,9 14 8 34 18 E 1002,1 14 0,1
03.07.2020 14:00:00 12,5 6,3 8 4 25 14 E 1001,5 19 0,0
03.07.2020 13:00:00 13,4 4,8 14 7 22 12 NE 1001,4 45 0,0
03.07.2020 12:00:00 14,6 2,5 9 5 23 13 ENE 1001,8 48 0,0
03.07.2020 11:00:00 13,9 3,9 7 4 14 7 NE 1002,4 50 0,0
03.07.2020 10:00:00 13,2 3,8 4 2 16 9 E 1002,9 36 0,0
03.07.2020 09:00:00 12,5 4,0 6 3 12 7 NE 1003,0 41 0,0
03.07.2020 08:00:00 11,1 4,5 5 3 11 6 NNE 1003,3 46 0,0
03.07.2020 07:00:00 10,1 4,7 4 2 7 4 NNE 1003,5 47 0,0
03.07.2020 06:00:00 8,3 6,0 0 0 3 1 N 1003,9 50 0,0
03.07.2020 05:00:00 6,5 5,3 0 0 3 1 N 1004,0 50 0,0
03.07.2020 04:00:00 1,5 0,6 0 0 5 3 N 1004,3 40 0,0
03.07.2020 03:00:00 -0,4 -1,1 0 0 4 2 N 1004,4 43 0,0
03.07.2020 02:00:00 -0,8 -1,3 4 2 5 3 WSW 1004,3 41 0,0
03.07.2020 01:00:00 0,5 0,0 2 1 3 2 SSW 1003,9 44 0,0
03.07.2020 00:00:00 2,5 1,9 0 0 3 1 N 1003,5 49 0,0
02.07.2020 23:00:00 5,0 3,8 0 0 6 4 N 1002,7 49 0,0
02.07.2020 22:00:00 7,1 4,9 3 2 4 2 W 1002,1 50 0,0
02.07.2020 21:00:00 10,2 4,6 3 2 7 4 SW 1001,4 50 0,0
02.07.2020 20:00:00 12,6 4,6 4 2 7 4 SW 1000,8 50 0,0
02.07.2020 19:00:00 13,7 1,7 4 2 14 8 W 1000,3 46 0,0
02.07.2020 18:00:00 14,0 2,2 8 5 25 14 NW 999,7 49 0,0
02.07.2020 17:00:00 15,2 -0,2 10 6 21 11 W 999,1 50 0,0
02.07.2020 16:00:00 14,5 0,5 10 5 25 13 WSW 998,5 50 0,0
02.07.2020 15:00:00 14,4 1,0 10 6 22 12 SW 998,1 38 0,0
02.07.2020 14:00:00 12,7 3,1 9 5 24 13 W 997,8 37 0,0
02.07.2020 13:00:00 13,9 3,4 19 10 30 16 W 997,1 46 0,0
02.07.2020 12:00:00 12,7 3,4 8 4 26 14 WSW 996,5 40 0,0
02.07.2020 11:00:00 12,8 5,0 6 4 18 10 WSW 995,8 50 0,0
02.07.2020 10:00:00 11,8 3,8 9 5 16 9 SW 995,4 45 0,0
02.07.2020 09:00:00 11,4 4,1 9 5 18 10 SW 994,6 48 0,0
02.07.2020 08:00:00 10,8 4,9 4 2 14 7 W 994,1 50 0,0
02.07.2020 07:00:00 9,6 4,2 8 4 14 8 W 993,6 50 0,0
02.07.2020 06:00:00 9,0 4,0 9 5 16 9 W 993,2 50 0,0
02.07.2020 05:00:00 8,4 4,2 5 3 11 6 WSW 992,7 50 0,0
02.07.2020 04:00:00 7,5 3,9 5 3 14 8 WNW 992,4 50 0,0
02.07.2020 03:00:00 5,8 5,7 3 2 6 3 W 992,0 50 0,0
02.07.2020 02:00:00 4,5 4,1 4 2 9 5 W 991,6 49 0,0
02.07.2020 01:00:00 4,3 3,7 3 2 7 4 SW 991,3 44 0,0
02.07.2020 00:00:00 7,1 6,4 4 2 9 5 S 990,8 50 0,0
01.07.2020 23:00:00 8,1 6,4 4 2 9 5 WSW 990,3 50 0,0
01.07.2020 22:00:00 8,9 6,5 5 3 17 9 W 989,6 50 0,0
01.07.2020 21:00:00 10,7 7,4 4 2 17 9 WSW 988,8 50 0,0

tt = temperature
td = dewpoint
ff = wind speed
fx = gusts
dd = wind direction
ppp = reduced air pressure
vv = visibility
rr = precipitation

Next stations